Regional Weather Roundup
Issued by NWS Little Rock, AR

Home | Current Version | Previous Version | Text Only | Print | Product List | Glossary On
Versions: 1 2 3 4 5 6 7 8 9 10 11 12 13 14 15 16 17 18 19 20 21 22 23 24 25 26 27 28 29 30 31 32 33 34 35 36 37 38 39 40 41 42 43 44 45 46 47 48 49 50
000
ASUS44 KLZK 291605
RWRLZK

WEATHER ROUNDUP FOR ARKANSAS
NATIONAL WEATHER SERVICE LITTLE ROCK AR
1100 AM CDT FRI AUG 29 2014

NOTE: "FAIR" INDICATES FEW OR NO CLOUDS BELOW 12,000 FEET WITH NO
SIGNIFICANT WEATHER AND/OR OBSTRUCTIONS TO VISIBILITY.

ARZ001-003-010-029-291700-
NORTHWEST ARKANSAS

CITY           SKY/WX    TMP DP  RH WIND       PRES   REMARKS
FAYETTEVILLE   MOSUNNY   82  69  64 S15G22    29.96S HX  85
FORT SMITH     MOSUNNY   86  71  60 W13       29.93R HX  91
HARRISON       CLOUDY    79  69  71 S10       29.97S
BENTONVILLE    CLOUDY    81  68  65 SW14G20   29.97S
ROGERS         MOSUNNY   82  67  60 SW17      29.96F
SILOAM SPGS    CLOUDY    81  66  61 SW13      29.97S
HIGHFILL       PTSUNNY   83  68  60 S14G21    29.95S HX  86
SPRINGDALE     PTSUNNY   81  68  65 S13G20    29.97
$$

ARZ004-005-016-291700-
NORTH CENTRAL ARKANSAS

CITY           SKY/WX    TMP DP  RH WIND       PRES   REMARKS
BATESVILLE     PTSUNNY   88  66  48 S10       29.96R HX  90
FLIPPIN        SUNNY     82  66  57 S9        29.96S HX  85
MTN HOME       MOSUNNY   86  68  54 SW13      29.96S HX  89
$$

ARZ040-041-291700-
WEST CENTRAL ARKANSAS

CITY           SKY/WX    TMP DP  RH WIND       PRES   REMARKS
MENA           MOSUNNY   82  73  74 S3        29.98S HX  88
MOUNT IDA      MOSUNNY   83  73  72 CALM      29.94F HX  89
$$

ARZ009-017-025-026-028-291700-
NORTHEAST ARKANSAS

CITY           SKY/WX    TMP DP  RH WIND       PRES   REMARKS
CORNING        LGT RAIN  86  68  54 S7        29.97F HX  89
JONESBORO      SUNNY     89  67  47 S10       29.96F HX  92
NEWPORT        SUNNY     87  71  58 SE3       29.97F HX  92
WALNUT RIDGE   SUNNY     88  70  55 S8        29.95F HX  92
BLYTHEVILLE    SUNNY     87  72  60 S8        29.99S HX  93
$$

ARZ022-023-033-042-044-291700-
CENTRAL ARKANSAS

CITY           SKY/WX    TMP DP  RH WIND       PRES   REMARKS
LITTLE ROCK    MOSUNNY   84  70  62 VRB5      29.96S HX  88
N LITTLE ROCK  MOSUNNY   83  73  72 S8        29.96S HX  89
JACKSONVILLE   MOSUNNY   84  71  65 VRB6      29.97R HX  89
SEARCY         MOSUNNY   85  72  65 MISG      29.98R HX  91
HOT SPRINGS    PTSUNNY   84  73  69 SW8       29.97S HX  90
RUSSELLVILLE     N/A     84  72  67 MISG      29.95F HX  89
CLINTON        FAIR      82  72  69 SE6       29.97S HX  87
$$

ARZ036-291700-
EAST ARKANSAS

CITY           SKY/WX    TMP DP  RH WIND       PRES   REMARKS
WEST MEMPHIS   SUNNY     87  75  67 S9        29.97S HX  96
$$

ARZ050-053-066-070-073-291700-
SOUTHWEST ARKANSAS

CITY           SKY/WX    TMP DP  RH WIND       PRES   REMARKS
ARKADELPHIA    FAIR      88  75  65 SW7       29.96S HX  97
CAMDEN         MOSUNNY   86  72  62 W3        29.97R HX  92
TEXARKANA      SUNNY     86  72  62 SW9       29.96R HX  92
EL DORADO      MOSUNNY   85  74  69 S5        29.98R HX  92
DE QUEEN       MOSUNNY   84  74  71 S5        29.93R HX  91
$$

ARZ056-057-069-291700-
SOUTHEAST ARKANSAS

CITY           SKY/WX    TMP DP  RH WIND       PRES   REMARKS
PINE BLUFF     SUNNY     85  73  67 VRB5      29.98R HX  91
STUTTGART      MOSUNNY   81  73  78 SE7       29.99R HX  85
MONTICELLO     SUNNY     86  72  62 W6        29.98R HX  92

$$




USA.gov is the U.S. government's official web portal to all federal, state and local government web resources and services.